Flag for Turkey Weather past 2 weeks in Ankara, Turkey

Now
82 °F

Scattered clouds.


Feels Like: 80 °F
Forecast: 54 / 82 °F
Wind: 8 mph from Southwest

Location: Ankara / Esenboga

Current Time: May 24, 2015 at 2:37:13 PM

Latest Report: May 24, 2015 at 1:50 PM


Visibility: N/A

Pressure: 29.92 "Hg

Humidity: 21%

Dew point: 39 °F

Location of AnkaraLocation

Historic Weather in Ankara — Graph

°F

Ankara temperature yesterday

Maximum temperature yesterday: 79 °F (at 1:50 PM)
Minimum temperature yesterday: 54 °F (at 11:20 PM)
Average temperature yesterday: 64 °F

Past Weeks' High & Low Weather Summary

 TemperatureHumidityPressure
High86 °F (May 20, 1:50 PM)94% (May 19, 5:50 AM)30.24 "Hg (May 19, 5:50 AM)
Low39 °F (May 10, 5:50 AM)13% (May 20, 3:20 PM)29.77 "Hg (May 20, 6:20 PM)
Average62 °F53%30.00 "Hg
* Reported May 9 1:20 PM — May 24 1:20 PM, Ankara, Weather by CustomWeather, © 2015

Note: Actual official high and low records may vary slightly from our data, if they occured in-between our weather recording intervals... More about our weather records

Advertising

Ankara weather history for previous 24 hours

 ConditionsComfort  
Time TempWeatherWind HumidityBarometerVisibility
1:20 PM
Sun, May 24
81 °FScattered clouds.6 mph28%29.92 "HgN/A
12:50 PM81 °FScattered clouds.6 mph26%29.92 "HgN/A
12:20 PM79 °FPassing clouds.7 mph30%29.95 "HgN/A
11:50 AM77 °FSunny.7 mph36%29.95 "Hg10 mi
11:20 AM75 °FSunny.5 mph39%29.95 "Hg10 mi
10:50 AM73 °FPassing clouds.5 mph41%29.95 "HgN/A
10:20 AM72 °FSunny.3 mph47%29.95 "Hg10 mi
9:50 AM66 °FSunny.2 mph60%29.95 "Hg10 mi
9:20 AM64 °FSunny.2 mph60%29.95 "Hg10 mi
8:50 AM61 °FSunny.2 mph72%29.98 "Hg10 mi
8:20 AM57 °FPassing clouds.3 mph77%29.98 "HgN/A
7:50 AM55 °FSunny.2 mph77%29.98 "Hg10 mi
7:20 AM54 °FSunny.1 mph82%29.98 "Hg10 mi
6:50 AM50 °FSunny.1 mph88%29.98 "Hg10 mi
6:20 AM46 °FClear.2 mph93%29.98 "Hg10 mi
5:50 AM46 °FClear.No wind93%29.98 "Hg10 mi
5:20 AM46 °FClear.2 mph93%29.98 "Hg10 mi
4:50 AM48 °FClear.2 mph94%29.98 "Hg10 mi
4:20 AM48 °FClear.2 mph94%29.98 "Hg10 mi
3:50 AM48 °FClear.1 mph94%29.98 "Hg10 mi
3:20 AM48 °FClear.2 mph94%29.98 "Hg10 mi
2:50 AM50 °FClear.2 mph88%29.98 "Hg10 mi
2:20 AM52 °FPassing clouds.3 mph88%29.98 "HgN/A
1:50 AM50 °FClear.2 mph94%29.98 "Hg10 mi
1:20 AM52 °FClear.2 mph82%29.98 "Hg10 mi
12:50 AM52 °FPassing clouds.3 mph88%29.98 "HgN/A
12:20 AM54 °FClear.2 mph82%29.98 "Hg10 mi
11:50 PM
Sat, May 23
55 °FPassing clouds.5 mph82%29.98 "HgN/A
11:20 PM54 °FPassing clouds.3 mph82%29.98 "HgN/A
10:50 PM55 °FClear.2 mph88%29.98 "Hg10 mi
10:20 PM57 °FClear.2 mph82%29.98 "Hg10 mi
9:50 PM57 °FPassing clouds.1 mph88%29.98 "HgN/A
9:20 PM59 °FPassing clouds.3 mph82%29.98 "HgN/A
8:50 PM63 °FScattered clouds.3 mph68%29.98 "HgN/A
8:20 PM63 °FScattered clouds.3 mph73%29.95 "HgN/A
7:50 PM64 °FScattered clouds.6 mph68%29.95 "HgN/A
7:20 PM64 °FScattered clouds.6 mph68%29.95 "HgN/A
6:50 PM64 °FScattered clouds.7 mph64%29.98 "HgN/A
6:20 PM63 °FScattered clouds.8 mph73%29.95 "HgN/A
5:50 PM64 °FBroken clouds.7 mph64%29.95 "HgN/A
5:20 PM64 °FSprinkles. Partly sunny.13 mph60%29.95 "HgN/A
4:50 PM63 °FPartly sunny.12 mph68%29.98 "HgN/A
4:20 PM63 °FPartly sunny.15 mph68%29.98 "HgN/A
3:50 PM63 °FThunderstorms. Partly sunny.12 mph68%29.95 "HgN/A
3:20 PM63 °FThunderstorms. Partly sunny.14 mph68%29.95 "HgN/A
2:50 PM64 °FThunderstorms. Partly sunny.24 mph64%29.92 "HgN/A
2:20 PM77 °FThunderstorms. Scattered clouds.7 mph39%29.92 "HgN/A
Weather by CustomWeather, © 2015

See weather overviewHow to use our weather pages